Terminal Aerodrome Forecast
Issued by NWS Grand Junction, CO

Home | Current Version | Previous Version | Text Only | Print | Product List | Glossary On
Versions: 1 2 3 4 5 6 7 8 9 10 11 12 13 14 15 16 17 18 19 20 21 22 23 24 25 26 27 28 29 30 31 32 33 34 35 36 37 38 39 40 41 42 43 44 45 46 47 48 49 50
000
FTUS45 KGJT 042328
TAFGJT
TAF
KGJT 042328Z 0500/0524 31010G15KT P6SM SCT060 BKN080
     FM050200 05005KT P6SM FEW080
     FM050500 11006KT P6SM SKC
     FM051500 14005KT P6SM SCT250
     FM051900 29004KT P6SM SCT250=

USA.gov is the U.S. government's official web portal to all federal, state and local government web resources and services.